Flag for Poland Weather past 2 weeks in Warsaw, Poland

Now
72 °F

Passing clouds.


Feels Like: 77 °F
Forecast: 56 / 85 °F
Wind: 6 mph from Northwest

Location: Warsaw Okecie Airport

Current Time: Aug 29, 2015 at 7:30:01 PM

Latest Report: Aug 29, 2015 at 7:00 PM


Visibility: N/A

Pressure: 30.24 "Hg

Humidity: 41%

Dew point: 46 °F

Location of WarsawLocation

Historic Weather in Warsaw — Graph

°F

Warsaw temperature yesterday

Maximum temperature yesterday: 84 °F (at 12:30 PM)
Minimum temperature yesterday: 59 °F (at 3:00 AM)
Average temperature yesterday: 71 °F

Past Weeks' High & Low Weather Summary

 TemperatureHumidityPressure
High90 °F (Aug 15, 2:30 PM)100% (Aug 25, 11:00 PM)30.36 "Hg (Aug 25, 11:00 PM)
Low52 °F (Aug 21, 4:00 AM)20% (Aug 18, 5:00 PM)29.77 "Hg (Aug 15, 5:30 PM)
Average70 °F49%30.06 "Hg
* Reported Aug 14 6:00 PM — Aug 29 6:30 PM, Warsaw, Weather by CustomWeather, © 2015

Note: Actual official high and low records may vary slightly from our data, if they occured in-between our weather recording intervals... More about our weather records

Advertising

Warsaw weather history for previous 24 hours

 ConditionsComfort  
Time TempWeatherWind HumidityBarometerVisibility
6:30 PM
Sat, Aug 29
73 °FPassing clouds.6 mph41%30.24 "HgN/A
6:00 PM75 °FPassing clouds.5 mph39%30.24 "HgN/A
5:30 PM75 °FPassing clouds.6 mph39%30.24 "HgN/A
5:00 PM75 °FPassing clouds.7 mph36%30.24 "HgN/A
4:30 PM75 °FSunny.7 mph39%30.24 "Hg10 mi
4:00 PM77 °FPassing clouds.9 mph34%30.24 "HgN/A
3:30 PM75 °FPassing clouds.6 mph39%30.24 "HgN/A
3:00 PM77 °FPassing clouds.8 mph39%30.27 "HgN/A
2:30 PM75 °FPassing clouds.9 mph41%30.27 "HgN/A
2:00 PM75 °FPassing clouds.8 mph41%30.27 "HgN/A
1:30 PM75 °FPassing clouds.8 mph41%30.27 "HgN/A
1:00 PM73 °FPassing clouds.9 mph41%30.27 "HgN/A
12:00 PM72 °FPassing clouds.10 mph47%30.27 "HgN/A
11:30 AM70 °FScattered clouds.8 mph53%30.27 "HgN/A
11:00 AM70 °FScattered clouds.10 mph57%30.24 "HgN/A
9:30 AM68 °FPassing clouds.8 mph69%30.24 "HgN/A
9:00 AM66 °FPassing clouds.6 mph73%30.24 "HgN/A
8:00 AM63 °FPassing clouds.7 mph83%30.24 "HgN/A
7:30 AM63 °FPartly sunny.6 mph88%30.21 "HgN/A
7:00 AM61 °FPartly sunny.7 mph88%30.21 "HgN/A
6:00 AM61 °FPassing clouds.5 mph94%30.18 "HgN/A
5:00 AM59 °FPassing clouds.5 mph94%30.18 "HgN/A
4:30 AM61 °FPassing clouds.3 mph88%30.18 "HgN/A
4:00 AM61 °FPassing clouds.5 mph88%30.18 "HgN/A
3:30 AM63 °FPassing clouds.7 mph88%30.15 "HgN/A
3:00 AM63 °FPassing clouds.7 mph88%30.15 "HgN/A
2:30 AM63 °FPassing clouds.7 mph88%30.15 "HgN/A
2:00 AM63 °FPassing clouds.7 mph94%30.15 "HgN/A
1:30 AM64 °FPassing clouds.7 mph88%30.15 "HgN/A
1:00 AM64 °FClear.7 mph88%30.12 "Hg10 mi
12:30 AM63 °FClear.7 mph94%30.12 "Hg10 mi
12:00 AM64 °FClear.6 mph88%30.12 "Hg10 mi
11:30 PM
Fri, Aug 28
64 °FClear.6 mph94%30.12 "Hg10 mi
11:00 PM66 °FClear.6 mph88%30.09 "Hg10 mi
10:30 PM68 °FSprinkles. Passing clouds.6 mph83%30.09 "HgN/A
10:00 PM68 °FClear.7 mph83%30.09 "Hg10 mi
9:30 PM68 °FPassing clouds.5 mph83%30.07 "HgN/A
9:00 PM68 °FPassing clouds.5 mph83%30.07 "HgN/A
8:30 PM70 °FPassing clouds.6 mph78%30.07 "HgN/A
8:00 PM72 °FSunny.6 mph73%30.07 "Hg10 mi
7:30 PM72 °FPassing clouds.7 mph73%30.04 "HgN/A
7:00 PM75 °FPassing clouds.9 mph65%30.04 "HgN/A
Weather by CustomWeather, © 2015

See weather overviewHow to use our weather pages